Location: Sagn�
(15.2046°N, 12.7898°W)
Time: 12:48:09
(UTC+00:00)

Ariane H10-3 - Pass Details

Date: 08 May 2021
Orbit: 305 x 28648 km, 7.1° (Epoch: 14 June)

Event Time Altitude Azimuth Distance (km) Brightness Sun altitude
Rises 19:18:32 0° 245° (WSW) 2,104 5.6 -2.6°
Reaches altitude 10° 19:19:59 10° 231° (SW) 1,485 4.5 -3.0°
Maximum altitude 19:22:34 30° 165° (SSE) 1,184 3.2 -3.5°
Drops below altitude 10° 19:29:44 10° 105° (ESE) 4,228 5.6 -5.2°
Enters shadow 19:32:52 - 101° (E) 5,651 6.3 -5.9°
